Flag for U.S.A. Weather past 2 weeks in San Antonio, Texas, U.S.A.

Now
81 °F

Passing clouds.


Feels Like: 86 °F
Forecast: 78 / 96 °F
Wind: 10 mph from South

Location: San Antonio International Airport

Current Time: Aug 4, 2015 at 5:07:43 AM

Latest Report: Aug 4, 2015 at 3:51 AM


Visibility: 10 mi

Pressure: 29.89 "Hg

Humidity: 79%

Dew point: 74 °F

Location of San AntonioLocation

Historic Weather in San Antonio — Graph

°F

San Antonio temperature yesterday

Maximum temperature yesterday: 98 °F (at 3:51 PM)
Minimum temperature yesterday: 77 °F (at 4:51 AM)
Average temperature yesterday: 87 °F

Past Weeks' High & Low Weather Summary

 TemperatureHumidityPressure
High98 °F (Jul 27, 4:51 PM)88% (Jul 20, 4:51 AM)30.06 "Hg (Jul 20, 4:51 AM)
Low75 °F (Aug 2, 6:51 AM)24% (Aug 1, 5:51 PM)29.77 "Hg (Jul 21, 6:51 PM)
Average86 °F59%29.90 "Hg
* Reported Jul 20 3:51 AM — Aug 4 3:51 AM, San Antonio, Weather by CustomWeather, © 2015

Note: Actual official high and low records may vary slightly from our data, if they occured in-between our weather recording intervals... More about our weather records

Advertising

San Antonio weather history for previous 24 hours

 ConditionsComfort  
Time TempWeatherWind HumidityBarometerVisibility
3:51 AM
Tue, Aug 4
81 °FPassing clouds.10 mph79%29.89 "Hg10 mi
2:51 AM81 °FOvercast.12 mph79%29.89 "Hg10 mi
1:51 AM81 °FClear.7 mph74%29.88 "Hg10 mi
12:51 AM82 °FPassing clouds.13 mph70%29.88 "Hg10 mi
11:51 PM
Mon, Aug 3
84 °FPassing clouds.12 mph63%29.87 "Hg10 mi
10:51 PM86 °FPassing clouds.14 mph61%29.85 "Hg10 mi
9:51 PM88 °FPassing clouds.15 mph54%29.83 "Hg10 mi
8:51 PM87 °FPassing clouds.9 mph42%29.81 "Hg10 mi
7:51 PM92 °FPassing clouds.12 mph35%29.81 "Hg10 mi
6:51 PM95 °FPassing clouds.10 mph29%29.80 "Hg10 mi
5:51 PM97 °FPassing clouds.10 mph29%29.79 "Hg10 mi
4:51 PM98 °FPassing clouds.13 mph26%29.81 "Hg10 mi
3:51 PM98 °FPassing clouds.9 mph28%29.83 "Hg10 mi
2:51 PM97 °FPassing clouds.9 mph32%29.84 "Hg10 mi
1:51 PM96 °FPassing clouds.No wind31%29.86 "Hg10 mi
12:51 PM94 °FPassing clouds.10 mph35%29.87 "Hg10 mi
11:51 AM91 °FPassing clouds.No wind41%29.88 "Hg10 mi
10:51 AM89 °FSunny.5 mph45%29.88 "Hg10 mi
9:51 AM85 °FSunny.3 mph63%29.88 "Hg10 mi
8:51 AM82 °FSunny.3 mph72%29.88 "Hg10 mi
7:51 AM79 °FPassing clouds.3 mph77%29.87 "Hg10 mi
6:51 AM77 °FClear.3 mph82%29.87 "Hg10 mi
5:51 AM78 °FPassing clouds.7 mph79%29.85 "Hg10 mi
Weather by CustomWeather, © 2015

See weather overviewHow to use our weather pages